"startDT [UTC]","vpos","CH4 [ppm]","stdev(CH4) [ppm]","CO2 [ppm]","stdev(CO2) [ppm]","H2O_reported [%]","stdev(H2O_reported)","CavityPressure [torr]","CavityTemp [C]","OutletValve","CH4_dry [ppm]","CO2_dry [ppm]","DasTemp [C]","EtalonTemp [C]","WarmBoxTemp [C]","MPVPosition","T_ECpre [C]","T_EC1 [C]","T_EC2 [C]","p_inlet [hPa]","p_in [hPa]","p_out [hPa]","T_inlet [C]","RH_inlet [%]","dwpt_inlet [C]","T_vent [C]","RH_vent [%]","dwpt_vent [C]","flow_vent [l min-1]","flow_inlet [l min-1]","dwpt_sample [C]","T_room [C]"
2015-04-01 00:00:00,3.0,1.88545,0.02210,399.086,2.441,0.0188,0.0253,139.957,44.999,30997.94632,1.88850,399.337,34.134,45.066,44.999,0.00,0.09,-272.72,-272.78,11,489,-4,22.1,2.4,-27.7,22.4,2.7,-26.1,5.73,1.46,-14.1,27.9
2015-04-01 00:01:00,3.0,1.87685,0.00052,397.596,0.040,0.0042,0.0018,139.997,44.999,30926.52368,1.87692,397.616,34.077,45.066,44.999,0.00,0.09,-272.72,-272.77,10,489,-4,22.0,2.4,-27.6,22.4,2.6,-26.3,5.73,1.70,-14.1,27.8
2015-04-01 00:02:00,3.0,1.87681,0.00040,397.554,0.045,0.0055,0.0017,139.997,44.999,30905.71884,1.87695,397.580,33.982,45.066,44.999,0.00,0.09,-272.71,-272.78,9,489,-5,22.0,2.4,-27.5,22.3,2.6,-26.6,5.73,1.73,-14.1,27.7
2015-04-01 00:03:00,3.0,1.87666,0.00035,397.679,0.042,0.0050,0.0018,139.999,44.999,30886.95141,1.87672,397.699,33.919,45.067,44.999,0.00,0.09,-272.72,-272.78,10,489,-4,21.9,2.4,-27.5,22.3,2.5,-26.8,5.73,1.63,-14.1,27.6
2015-04-01 00:04:00,3.0,1.87661,0.00039,397.699,0.025,0.0035,0.0014,140.001,44.999,30875.27610,1.87670,397.717,33.853,45.067,44.999,0.00,0.09,-272.72,-272.77,11,489,-4,21.9,2.4,-27.5,22.2,2.5,-27.0,5.73,1.55,-14.1,27.5
2015-04-01 00:05:00,3.0,1.87659,0.00029,397.705,0.038,0.0029,0.0024,139.999,44.999,30863.10307,1.87664,397.720,33.785,45.067,45.000,0.00,0.09,-272.71,-272.77,10,490,-4,21.8,2.4,-27.5,22.2,2.5,-27.2,5.73,1.56,-14.1,27.5
2015-04-01 00:06:00,3.0,1.87666,0.00031,397.708,0.026,0.0025,0.0020,139.999,44.999,30855.11801,1.87669,397.719,33.749,45.067,45.000,0.00,0.09,-272.72,-272.78,10,490,-4,21.9,2.4,-27.5,22.2,2.5,-27.2,5.73,1.63,-14.2,27.5
2015-04-01 00:07:00,3.0,1.87675,0.00044,397.710,0.025,0.0015,0.0021,140.001,44.999,30849.12402,1.87679,397.718,33.748,45.067,45.000,0.00,0.09,-272.72,-272.78,10,490,-4,21.9,2.4,-27.5,22.2,2.4,-27.2,5.73,1.69,-14.2,27.5
2015-04-01 00:08:00,3.0,1.87670,0.00037,397.715,0.030,0.0016,0.0019,140.001,45.000,30845.41352,1.87674,397.721,33.749,45.068,45.000,0.00,0.09,-272.72,-272.77,11,491,-4,22.0,2.4,-27.4,22.3,2.4,-27.3,5.73,1.70,-14.2,27.5
2015-04-01 00:09:00,3.0,1.87653,0.00017,397.698,0.028,0.0014,0.0011,139.999,45.000,30844.62031,1.87655,397.705,33.755,45.068,45.001,0.00,0.09,-272.72,-272.77,10,491,-4,22.0,2.4,-27.4,22.3,2.4,-27.2,5.73,1.68,-14.2,27.6
2015-04-01 00:10:00,3.0,1.87675,0.00025,397.717,0.034,0.0010,0.0022,139.999,45.000,30842.19866,1.87677,397.721,33.817,45.068,45.001,0.00,0.09,-272.72,-272.78,10,491,-4,22.1,2.4,-27.3,22.3,2.4,-27.2,5.73,1.65,-14.2,27.6
2015-04-01 00:11:00,3.0,1.87659,0.00029,397.720,0.032,0.0011,0.0022,139.998,45.001,30842.14761,1.87661,397.727,33.878,45.069,45.001,0.00,0.09,-272.72,-272.77,10,492,-4,22.2,2.4,-27.3,22.4,2.4,-27.2,5.73,1.62,-14.2,27.7
2015-04-01 00:12:00,3.0,1.87682,0.00029,397.712,0.026,0.0010,0.0014,140.000,45.001,30843.79192,1.87683,397.715,33.944,45.069,45.001,0.00,0.09,-272.72,-272.77,10,492,-4,22.2,2.4,-27.3,22.4,2.4,-27.2,5.73,1.60,-14.2,27.8
2015-04-01 00:13:00,3.0,1.87668,0.00034,397.723,0.028,-0.0004,0.0016,139.996,45.001,30845.73371,1.87667,397.721,34.016,45.069,45.001,0.00,0.09,-272.72,-272.77,10,493,-4,22.3,2.4,-27.3,22.5,2.4,-27.1,5.73,1.59,-14.2,27.8
2015-04-01 00:14:00,3.0,1.87678,0.00035,397.721,0.024,0.0008,0.0018,139.998,45.002,30847.87036,1.87678,397.725,34.083,45.069,45.001,0.00,0.09,-272.72,-272.78,10,493,-4,22.3,2.4,-27.3,22.5,2.4,-27.2,5.73,1.59,-14.2,27.9
2015-04-01 00:15:00,3.0,1.87669,0.00045,397.737,0.021,-0.0006,0.0014,140.000,45.001,30849.99535,1.87672,397.735,34.141,45.068,45.001,0.00,0.09,-272.71,-272.77,10,493,-4,22.4,2.4,-27.3,22.6,2.4,-27.2,5.73,1.61,-14.2,27.9
2015-04-01 00:16:00,3.0,1.87668,0.00046,397.736,0.032,0.0006,0.0016,139.996,45.001,30850.85003,1.87665,397.738,34.212,45.068,45.000,0.00,0.09,-272.71,-272.77,10,494,-4,22.4,2.4,-27.2,22.6,2.4,-27.2,5.73,1.64,-14.2,28.0
2015-04-01 00:17:00,3.0,1.87666,0.00036,397.700,0.036,-0.0004,0.0015,140.000,45.001,30855.25285,1.87668,397.700,34.286,45.068,45.000,0.00,0.09,-272.72,-272.78,10,494,-4,22.5,2.4,-27.1,22.6,2.4,-27.1,5.73,1.68,-14.2,28.0
2015-04-01 00:18:00,3.0,1.87675,0.00037,397.731,0.036,0.0004,0.0013,139.999,45.001,30858.66542,1.87677,397.732,34.370,45.067,45.000,0.00,0.09,-272.71,-272.78,9,494,-4,22.6,2.4,-27.1,22.7,2.4,-27.1,5.73,1.68,-14.2,28.1
2015-04-01 00:19:00,3.0,1.87693,0.00029,397.708,0.029,-0.0004,0.0013,139.997,45.001,30860.84006,1.87689,397.708,34.454,45.067,45.000,0.00,0.09,-272.71,-272.77,10,495,-4,22.6,2.4,-27.0,22.7,2.4,-27.1,5.73,1.68,-14.2,28.1
2015-04-01 00:20:00,0.0,1.94044,0.01723,404.153,2.148,0.0667,0.0255,140.053,45.001,32016.23236,1.93904,404.319,34.539,45.068,45.000,0.00,0.09,-272.72,-272.78,5,674,-4,22.7,2.4,-27.1,22.8,2.4,-27.1,5.73,1.87,-14.2,28.2
2015-04-01 00:21:00,0.0,1.94459,0.00033,405.176,0.036,0.0782,0.0011,140.001,45.001,32088.35361,1.94607,405.558,34.624,45.067,45.000,0.00,0.09,-272.71,-272.77,4,674,-4,22.8,2.3,-27.4,22.8,2.4,-27.0,5.73,1.67,-14.2,28.2
2015-04-01 00:22:00,0.0,1.94528,0.00049,405.200,0.026,0.0778,0.0017,140.002,45.001,32111.87123,1.94676,405.578,34.716,45.067,45.000,0.00,0.09,-272.71,-272.78,4,673,-4,22.8,2.3,-27.5,22.8,2.4,-26.9,5.73,1.94,-14.1,28.2
2015-04-01 00:23:00,0.0,1.94546,0.00053,405.203,0.037,0.0787,0.0016,140.000,45.001,32131.96290,1.94693,405.587,34.771,45.067,45.000,0.00,0.09,-272.72,-272.77,5,674,-4,22.8,2.3,-27.4,22.9,2.4,-26.9,5.73,1.75,-14.2,28.3
2015-04-01 00:24:00,0.0,1.94690,0.00038,405.317,0.058,0.0775,0.0018,139.999,45.001,32145.02118,1.94838,405.693,34.815,45.067,45.000,0.00,0.09,-272.72,-272.77,3,674,-4,22.9,2.3,-27.4,22.9,2.5,-26.7,5.73,1.70,-14.1,28.3
2015-04-01 00:25:00,0.0,1.94653,0.00041,405.292,0.061,0.0799,0.0018,140.002,45.001,32160.23044,1.94806,405.683,34.865,45.067,45.000,0.00,0.09,-272.72,-272.77,5,673,-5,22.9,2.3,-27.3,22.9,2.5,-26.7,5.73,1.95,-14.1,28.3
2015-04-01 00:26:00,0.0,1.94631,0.00048,405.247,0.038,0.0812,0.0020,140.002,45.001,32172.73555,1.94790,405.643,34.892,45.067,45.000,0.00,0.09,-272.72,-272.77,4,674,-5,22.9,2.4,-27.1,23.0,2.5,-26.7,5.73,1.69,-14.1,28.4
2015-04-01 00:27:00,0.0,1.94635,0.00042,405.281,0.052,0.0825,0.0019,139.999,45.001,32180.26977,1.94787,405.681,34.944,45.068,45.000,0.00,0.09,-272.71,-272.77,4,673,-5,23.0,2.4,-26.9,23.0,2.5,-26.6,5.73,1.76,-14.1,28.4
2015-04-01 00:28:00,0.0,1.94685,0.00035,405.301,0.033,0.0831,0.0021,140.000,45.001,32188.76301,1.94847,405.708,34.996,45.068,45.000,0.00,0.09,-272.72,-272.76,5,674,-5,23.0,2.4,-26.9,23.1,2.5,-26.5,5.73,1.94,-14.1,28.4
2015-04-01 00:29:00,0.0,1.94668,0.00035,405.294,0.029,0.0814,0.0009,140.001,45.001,32197.02202,1.94827,405.691,35.004,45.068,45.000,0.00,0.09,-272.70,-272.77,3,674,-5,23.0,2.4,-26.9,23.1,2.5,-26.5,5.73,1.63,-14.1,28.4
2015-04-01 00:30:00,0.0,1.94657,0.00035,405.288,0.029,0.0825,0.0013,139.999,45.001,32202.17749,1.94815,405.690,35.007,45.068,45.000,0.00,0.09,-272.72,-272.77,5,674,-5,23.0,2.4,-27.1,23.1,2.5,-26.3,5.73,1.85,-14.1,28.5
2015-04-01 00:31:00,0.0,1.94670,0.00049,405.285,0.031,0.0817,0.0019,139.998,45.001,32209.04222,1.94824,405.684,35.023,45.068,45.000,0.00,0.09,-272.72,-272.77,3,674,-5,23.1,2.4,-27.0,23.1,2.5,-26.3,5.73,1.86,-14.1,28.5
2015-04-01 00:32:00,0.0,1.94645,0.00034,405.279,0.024,0.0826,0.0013,139.999,45.000,32212.48027,1.94807,405.683,35.049,45.068,45.001,0.00,0.09,-272.70,-272.77,5,674,-5,23.0,2.4,-27.0,23.1,2.5,-26.3,5.73,1.63,-14.0,28.5
2015-04-01 00:33:00,0.0,1.94579,0.00033,405.225,0.030,0.0816,0.0018,139.999,45.000,32216.84079,1.94736,405.623,35.072,45.068,45.001,0.00,0.09,-272.72,-272.78,4,674,-5,23.1,2.4,-27.0,23.1,2.5,-26.2,5.73,1.93,-14.1,28.5
2015-04-01 00:34:00,0.0,1.94620,0.00034,405.210,0.048,0.0822,0.0012,139.998,45.000,32221.75764,1.94776,405.612,35.099,45.068,45.001,0.00,0.09,-272.72,-272.78,4,673,-5,23.1,2.4,-27.0,23.2,2.5,-26.4,5.73,1.76,-14.0,28.6
2015-04-01 00:35:00,0.0,1.94592,0.00042,405.237,0.041,0.0818,0.0018,140.001,45.000,32226.06940,1.94754,405.636,35.114,45.068,45.001,0.00,0.09,-272.71,-272.77,4,674,-5,23.1,2.3,-27.1,23.2,2.5,-26.4,5.73,1.69,-14.0,28.6
2015-04-01 00:36:00,0.0,1.94587,0.00031,405.216,0.042,0.0823,0.0020,139.998,45.000,32227.61211,1.94744,405.619,35.114,45.068,45.000,0.00,0.09,-272.71,-272.77,3,674,-5,23.1,2.4,-27.0,23.2,2.5,-26.2,5.73,1.96,-14.0,28.6
2015-04-01 00:37:00,0.0,1.94618,0.00079,405.600,0.501,0.0826,0.0017,139.999,45.000,32229.73858,1.94768,405.977,35.120,45.068,45.000,0.00,0.09,-272.72,-272.77,5,673,-5,23.1,2.4,-27.0,23.2,2.6,-26.1,5.73,1.66,-14.0,28.6
2015-04-01 00:38:00,0.0,1.94634,0.00067,405.836,0.323,0.0814,0.0017,139.998,45.000,32228.06629,1.94799,406.258,35.165,45.067,45.000,0.00,0.09,-272.71,-272.77,3,673,-5,23.1,2.3,-27.2,23.2,2.6,-26.0,5.73,1.79,-14.0,28.6
2015-04-01 00:39:00,0.0,1.94604,0.00073,405.529,0.537,0.0812,0.0016,140.000,45.000,32231.85939,1.94753,405.901,35.206,45.067,45.000,0.00,0.09,-272.71,-272.76,4,673,-5,23.1,2.3,-27.1,23.2,2.5,-26.3,5.73,1.90,-14.0,28.6
2015-04-01 00:40:00,0.0,1.94621,0.00065,405.944,0.424,0.0821,0.0014,140.000,45.000,32235.53274,1.94787,406.373,35.249,45.067,45.000,0.00,0.09,-272.71,-272.77,4,673,-5,23.1,2.3,-27.1,23.2,2.5,-26.2,5.73,1.63,-14.0,28.6
2015-04-01 00:41:00,0.0,1.94576,0.00042,405.219,0.041,0.0808,0.0016,140.004,45.000,32238.42002,1.94731,405.611,35.252,45.067,45.000,0.00,0.09,-272.72,-272.77,3,673,-5,23.1,2.3,-27.1,23.2,2.5,-26.2,5.73,1.88,-14.0,28.6
2015-04-01 00:42:00,0.0,1.94687,0.00060,406.562,0.799,0.0804,0.0018,140.000,45.000,32238.43469,1.94832,406.917,35.250,45.067,45.000,0.00,0.09,-272.71,-272.76,4,673,-5,23.1,2.3,-27.4,23.3,2.6,-26.1,5.73,1.83,-14.0,28.6
2015-04-01 00:43:00,0.0,1.94718,0.00040,407.385,0.173,0.0806,0.0020,140.001,45.000,32242.01870,1.94873,407.791,35.250,45.067,45.000,0.00,0.09,-272.71,-272.77,3,673,-5,23.2,2.3,-27.2,23.3,2.5,-26.1,5.73,1.63,-14.0,28.7
2015-04-01 00:44:00,0.0,1.94697,0.00037,406.313,0.307,0.0800,0.0016,140.002,45.000,32245.21664,1.94854,406.720,35.233,45.067,45.000,0.00,0.09,-272.72,-272.77,5,674,-5,23.1,2.3,-27.3,23.3,2.6,-25.9,5.73,1.95,-14.0,28.7
2015-04-01 00:45:00,0.0,1.94665,0.00038,405.989,0.181,0.0802,0.0020,139.999,45.000,32245.89023,1.94819,406.384,35.238,45.067,45.000,0.00,0.09,-272.70,-272.76,3,674,-5,23.1,2.3,-27.5,23.3,2.6,-26.0,5.73,1.71,-14.0,28.7
2015-04-01 00:46:00,0.0,1.94740,0.00030,406.756,0.347,0.0807,0.0016,139.998,45.000,32244.05022,1.94891,407.129,35.250,45.067,45.000,0.00,0.09,-272.71,-272.77,4,673,-5,23.1,2.3,-27.3,23.2,2.6,-26.1,5.73,1.73,-14.0,28.7
2015-04-01 00:47:00,0.0,1.94720,0.00048,406.341,0.281,0.0806,0.0016,139.998,45.000,32245.54512,1.94874,406.747,35.250,45.067,45.000,0.00,0.09,-272.71,-272.77,3,674,-5,23.1,2.3,-27.5,23.3,2.6,-26.0,5.73,1.94,-14.0,28.6
2015-04-01 00:48:00,0.0,1.94736,0.00036,406.359,0.222,0.0800,0.0019,140.001,45.000,32246.66221,1.94891,406.742,35.240,45.066,44.999,0.00,0.09,-272.71,-272.77,4,674,-5,23.1,2.3,-27.3,23.3,2.6,-26.1,5.73,1.61,-13.9,28.6
2015-04-01 00:49:00,0.0,1.94746,0.00043,406.715,0.118,0.0799,0.0015,140.001,44.999,32246.66776,1.94896,407.103,35.183,45.066,44.999,0.00,0.09,-272.71,-272.76,4,674,-5,23.0,2.3,-27.3,23.2,2.5,-26.2,5.73,1.92,-14.0,28.6
2015-04-01 00:50:00,0.0,1.94739,0.00022,406.730,0.289,0.0806,0.0015,140.001,44.999,32247.29151,1.94895,407.131,35.099,45.066,44.999,0.00,0.09,-272.72,-272.77,4,674,-5,22.9,2.3,-27.5,23.2,2.6,-26.0,5.73,1.72,-14.0,28.6
2015-04-01 00:51:00,0.0,1.94738,0.00039,406.343,0.166,0.0806,0.0015,139.998,44.999,32242.09583,1.94894,406.745,35.014,45.066,44.999,0.00,0.09,-272.71,-272.77,4,674,-5,22.8,2.3,-27.4,23.1,2.6,-26.0,5.73,1.78,-14.0,28.7
2015-04-01 00:52:00,0.0,1.94757,0.00033,407.059,0.370,0.0797,0.0015,140.004,44.998,32243.69937,1.94909,407.426,34.905,45.066,44.999,0.00,0.09,-272.71,-272.76,4,674,-5,22.8,2.3,-27.5,23.0,2.6,-26.0,5.73,1.86,-14.0,28.6
2015-04-01 00:53:00,0.0,1.94737,0.00037,407.242,0.197,0.0806,0.0020,140.000,44.998,32241.20687,1.94892,407.646,34.815,45.066,44.999,0.00,0.09,-272.71,-272.77,4,674,-5,22.7,2.4,-27.3,22.9,2.6,-26.1,5.73,1.65,-14.0,28.5
2015-04-01 00:54:00,0.0,1.94769,0.00038,406.567,0.161,0.0811,0.0020,140.000,44.998,32237.64132,1.94922,406.970,34.715,45.066,45.000,0.00,0.09,-272.72,-272.77,4,674,-5,22.6,2.4,-27.4,22.9,2.6,-26.0,5.73,1.96,-14.0,28.5
2015-04-01 00:55:00,0.0,1.94688,0.00079,406.035,0.459,0.0806,0.0018,140.000,44.998,32235.66003,1.94850,406.441,34.602,45.066,44.999,0.00,0.09,-272.70,-272.76,4,675,-5,22.6,2.4,-27.4,22.9,2.6,-26.0,5.73,1.60,-14.0,28.4
2015-04-01 00:56:00,0.0,1.94676,0.00051,405.850,0.368,0.0812,0.0018,139.997,44.998,32234.49451,1.94832,406.252,34.492,45.067,45.000,0.00,0.09,-272.71,-272.77,4,675,-5,22.5,2.4,-27.2,22.8,2.6,-26.3,5.73,1.97,-14.0,28.3
2015-04-01 00:57:00,0.0,1.94681,0.00043,405.778,0.284,0.0810,0.0017,140.000,44.998,32233.79181,1.94836,406.171,34.404,45.067,45.000,0.00,0.09,-272.72,-272.77,4,675,-5,22.5,2.4,-27.3,22.8,2.6,-26.2,5.73,1.61,-14.1,28.2
2015-04-01 00:58:00,0.0,1.94680,0.00049,405.740,0.219,0.0811,0.0015,140.000,44.999,32232.03304,1.94833,406.138,34.326,45.067,45.000,0.00,0.09,-272.71,-272.77,4,675,-5,22.5,2.4,-27.2,22.8,2.6,-26.2,5.73,1.94,-14.1,28.2
2015-04-01 00:59:00,0.0,1.94748,0.00063,406.820,0.561,0.0819,0.0023,140.000,44.999,32230.58351,1.94901,407.195,34.215,45.067,45.000,0.00,0.09,-272.71,-272.77,4,676,-5,22.4,2.4,-27.3,22.7,2.6,-26.2,5.73,1.67,-14.1,28.1
2015-04-01 01:00:00,0.0,1.94785,0.00037,407.038,0.220,0.0814,0.0018,139.998,44.999,32227.88797,1.94944,407.441,34.135,45.067,45.000,0.00,0.09,-272.71,-272.78,5,676,-5,22.4,2.4,-27.2,22.7,2.6,-26.1,5.73,1.86,-14.1,28.0
2015-04-01 01:01:00,0.0,1.94774,0.00040,407.149,0.328,0.0813,0.0019,140.000,44.998,32225.90836,1.94925,407.533,34.054,45.067,45.000,0.00,0.09,-272.72,-272.77,4,676,-5,22.4,2.4,-27.2,22.7,2.6,-26.2,5.73,1.76,-14.1,27.9
2015-04-01 01:02:00,0.0,1.94799,0.00034,406.986,0.234,0.0817,0.0015,139.997,44.999,32220.75416,1.94956,407.383,33.985,45.067,45.000,0.00,0.09,-272.71,-272.77,5,676,-5,22.4,2.4,-27.2,22.6,2.6,-26.2,5.73,1.76,-14.2,27.8
2015-04-01 01:03:00,0.0,1.94822,0.00033,407.855,0.264,0.0817,0.0023,139.999,44.999,32217.08446,1.94981,408.264,33.928,45.067,45.000,0.00,0.09,-272.72,-272.77,4,676,-5,22.3,2.4,-27.3,22.5,2.6,-26.2,5.73,1.88,-14.2,27.7
2015-04-01 01:04:00,0.0,1.94813,0.00036,407.516,0.335,0.0825,0.0014,140.000,44.999,32215.25424,1.94971,407.925,33.880,45.067,44.999,0.00,0.09,-272.72,-272.77,5,676,-5,22.2,2.4,-27.3,22.5,2.6,-26.3,5.73,1.64,-14.2,27.6
2015-04-01 01:05:00,0.0,1.94782,0.00063,407.061,0.522,0.0819,0.0015,140.000,44.999,32214.57107,1.94938,407.448,33.830,45.067,44.999,0.00,0.09,-272.72,-272.77,4,676,-5,22.2,2.4,-27.4,22.5,2.6,-26.3,5.73,1.97,-14.2,27.6
2015-04-01 01:06:00,0.0,1.94811,0.00040,407.670,0.124,0.0798,0.0015,140.001,44.999,32214.25464,1.94962,408.070,33.828,45.067,45.000,0.00,0.09,-272.71,-272.76,4,676,-5,22.2,2.4,-27.6,22.5,2.6,-26.3,5.73,1.67,-14.2,27.6
2015-04-01 01:07:00,0.0,1.94797,0.00041,407.254,0.354,0.0798,0.0020,140.002,45.000,32214.63314,1.94952,407.655,33.875,45.067,45.000,0.00,0.09,-272.71,-272.77,5,676,-5,22.2,2.4,-27.4,22.5,2.6,-26.3,5.73,1.80,-14.2,27.6
2015-04-01 01:08:00,0.0,1.94778,0.00043,406.733,0.279,0.0814,0.0014,140.001,45.000,32211.08690,1.94933,407.124,33.951,45.068,45.001,0.00,0.09,-272.72,-272.77,4,675,-5,22.3,2.4,-27.4,22.5,2.6,-26.2,5.73,1.92,-14.2,27.7
2015-04-01 01:09:00,0.0,1.94767,0.00034,406.586,0.425,0.0811,0.0016,140.002,45.001,32211.68162,1.94923,406.987,34.032,45.068,45.001,0.00,0.09,-272.71,-272.77,5,675,-5,22.3,2.4,-27.4,22.5,2.6,-26.3,5.73,1.65,-14.2,27.7
2015-04-01 01:10:00,0.0,1.94754,0.00075,406.400,0.787,0.0813,0.0016,139.999,45.001,32210.61044,1.94915,406.827,34.123,45.068,45.001,0.00,0.09,-272.71,-272.77,4,675,-5,22.3,2.4,-27.2,22.5,2.6,-26.2,5.73,1.82,-14.2,27.7
2015-04-01 01:11:00,0.0,1.94546,0.00046,405.215,0.054,0.0819,0.0018,140.000,45.002,32213.83337,1.94708,405.619,34.236,45.068,45.001,0.00,0.09,-272.72,-272.77,4,674,-5,22.4,2.4,-27.2,22.6,2.6,-26.2,5.73,1.93,-14.2,27.8
2015-04-01 01:12:00,0.0,1.94583,0.00056,405.169,0.028,0.0820,0.0021,140.000,45.002,32213.95226,1.94740,405.569,34.341,45.068,45.001,0.00,0.09,-272.71,-272.77,5,674,-5,22.4,2.4,-27.1,22.6,2.6,-26.2,5.73,1.67,-14.3,27.8
2015-04-01 01:13:00,0.0,1.94625,0.00052,405.202,0.034,0.0839,0.0017,140.002,45.002,32219.07568,1.94780,405.610,34.455,45.068,45.000,0.00,0.09,-272.71,-272.77,4,674,-5,22.4,2.5,-27.0,22.6,2.6,-26.2,5.73,1.77,-14.2,27.8
2015-04-01 01:14:00,0.0,1.94756,0.00059,406.436,0.660,0.0844,0.0043,140.000,45.002,32224.76573,1.94912,406.815,34.579,45.068,45.000,0.00,0.09,-272.72,-272.77,5,674,-5,22.5,2.5,-27.0,22.7,2.6,-26.1,5.73,1.94,-14.2,27.8
2015-04-01 01:15:00,0.0,1.94792,0.00034,406.814,0.112,0.0845,0.0021,140.000,45.002,32227.36534,1.94955,407.228,34.687,45.068,45.000,0.00,0.09,-272.72,-272.77,5,674,-5,22.5,2.5,-26.8,22.7,2.6,-26.2,5.73,1.74,-14.2,27.9
2015-04-01 01:16:00,0.0,1.94735,0.00053,405.866,0.670,0.0848,0.0017,139.997,45.002,32229.41282,1.94901,406.317,34.791,45.068,45.000,0.00,0.09,-272.71,-272.77,4,674,-5,22.5,2.5,-26.7,22.7,2.6,-26.2,5.73,1.70,-14.2,27.9
2015-04-01 01:17:00,0.0,1.94754,0.00038,405.263,0.033,0.0840,0.0013,139.998,45.002,32232.76719,1.94917,405.672,34.887,45.067,45.000,0.00,0.09,-272.72,-272.77,5,673,-5,22.6,2.5,-26.8,22.7,2.6,-26.1,5.73,1.92,-14.2,28.0
2015-04-01 01:18:00,0.0,1.94727,0.00031,405.239,0.031,0.0855,0.0019,140.003,45.002,32241.32761,1.94890,405.658,34.964,45.067,45.000,0.00,0.09,-272.72,-272.77,5,673,-5,22.6,2.5,-26.6,22.7,2.6,-26.1,5.73,1.83,-14.2,28.0
2015-04-01 01:19:00,0.0,1.94726,0.00030,405.246,0.038,0.0854,0.0015,140.000,45.002,32246.23331,1.94889,405.662,35.078,45.068,45.001,0.00,0.09,-272.72,-272.77,4,673,-5,22.6,2.5,-26.7,22.8,2.6,-26.1,5.73,1.66,-14.2,28.1
2015-04-01 01:20:00,0.0,1.94745,0.00033,405.263,0.026,0.0849,0.0016,140.003,45.002,32253.35743,1.94909,405.677,35.185,45.068,45.001,0.00,0.09,-272.71,-272.77,5,673,-5,22.7,2.5,-26.8,22.8,2.6,-26.1,5.73,1.83,-14.2,28.1
2015-04-01 01:21:00,0.0,1.94737,0.00031,405.275,0.035,0.0844,0.0014,140.003,45.002,32255.87342,1.94899,405.685,35.317,45.068,45.001,0.00,0.09,-272.72,-272.77,4,673,-5,22.7,2.5,-26.9,22.8,2.6,-26.1,5.73,1.92,-14.2,28.1
2015-04-01 01:22:00,0.0,1.94639,0.00057,405.198,0.041,0.0840,0.0021,140.001,45.002,32259.34723,1.94801,405.609,35.437,45.068,45.001,0.00,0.09,-272.71,-272.77,4,673,-5,22.7,2.5,-26.8,22.9,2.6,-26.0,5.73,1.74,-14.2,28.2
2015-04-01 01:23:00,0.0,1.94650,0.00054,405.231,0.041,0.0853,0.0020,140.002,45.002,32265.40279,1.94814,405.647,35.577,45.068,45.001,0.00,0.09,-272.70,-272.77,5,673,-5,22.8,2.5,-26.8,22.9,2.6,-26.0,5.73,1.68,-14.2,28.2
2015-04-01 01:24:00,0.0,1.94686,0.00036,405.241,0.027,0.0844,0.0016,139.998,45.002,32268.74773,1.94849,405.653,35.697,45.067,45.000,0.00,0.09,-272.72,-272.78,4,673,-5,22.8,2.5,-26.8,22.9,2.7,-25.9,5.73,1.88,-14.2,28.2
2015-04-01 01:25:00,0.0,1.94674,0.00034,405.233,0.038,0.0846,0.0014,140.000,45.002,32270.38678,1.94835,405.646,35.807,45.067,45.000,0.00,0.09,-272.71,-272.77,4,672,-5,22.8,2.5,-26.8,22.9,2.7,-25.9,5.73,1.88,-14.2,28.3
2015-04-01 01:26:00,0.0,1.94663,0.00050,405.211,0.031,0.0837,0.0014,139.998,45.002,32274.55863,1.94826,405.620,35.901,45.067,45.000,0.00,0.09,-272.71,-272.76,5,672,-5,22.8,2.5,-26.8,22.9,2.6,-25.9,5.73,1.70,-14.2,28.3
2015-04-01 01:27:00,0.0,1.94650,0.00039,405.212,0.036,0.0844,0.0017,140.003,45.002,32277.88337,1.94809,405.623,35.986,45.067,45.000,0.00,0.09,-272.71,-272.77,4,672,-5,22.8,2.5,-26.8,23.0,2.7,-25.8,5.73,1.73,-14.2,28.4
2015-04-01 01:28:00,0.0,1.94709,0.00048,405.215,0.039,0.0848,0.0018,139.999,45.001,32278.46999,1.94870,405.627,36.050,45.067,45.000,0.00,0.09,-272.72,-272.78,4,672,-5,22.9,2.5,-26.8,23.0,2.6,-25.9,5.73,1.89,-14.2,28.5
2015-04-01 01:29:00,0.0,1.94697,0.00048,405.214,0.036,0.0843,0.0017,140.001,45.002,32282.72313,1.94858,405.626,36.066,45.067,45.000,0.00,0.09,-272.71,-272.77,4,672,-5,22.9,2.4,-26.8,23.0,2.6,-25.9,5.73,1.87,-14.2,28.5
2015-04-01 01:30:00,0.0,1.94552,0.00073,405.133,0.054,0.0843,0.0024,140.001,45.001,32289.34703,1.94720,405.546,36.106,45.068,45.001,0.00,0.09,-272.71,-272.76,5,672,-5,22.9,2.4,-26.9,23.0,2.7,-25.7,5.73,1.71,-14.2,28.5
2015-04-01 01:31:00,0.0,1.94639,0.00044,405.189,0.039,0.0833,0.0020,140.001,45.001,32289.38055,1.94798,405.594,36.157,45.068,45.001,0.00,0.09,-272.72,-272.77,3,672,-5,22.9,2.4,-26.9,23.1,2.7,-25.7,5.73,1.71,-14.2,28.6
2015-04-01 01:32:00,0.0,1.94604,0.00034,405.182,0.032,0.0849,0.0016,139.998,45.001,32293.06659,1.94768,405.596,36.237,45.068,45.002,0.00,0.09,-272.72,-272.78,4,672,-5,23.0,2.4,-26.9,23.1,2.7,-25.8,5.73,1.86,-14.2,28.7
2015-04-01 01:33:00,0.0,1.94553,0.00040,405.154,0.031,0.0838,0.0015,140.000,45.001,32293.20887,1.94715,405.565,36.308,45.068,45.002,0.00,0.09,-272.70,-272.76,5,672,-5,23.0,2.4,-26.9,23.1,2.7,-25.7,5.73,1.90,-14.2,28.7
2015-04-01 01:34:00,0.0,1.94595,0.00052,405.152,0.036,0.0831,0.0016,139.999,45.001,32296.40903,1.94754,405.557,36.370,45.068,45.001,0.00,0.09,-272.71,-272.77,4,672,-5,23.0,2.4,-27.0,23.1,2.7,-25.7,5.73,1.76,-14.1,28.8
2015-04-01 01:35:00,0.0,1.94606,0.00042,405.147,0.040,0.0829,0.0011,139.998,45.001,32297.13686,1.94766,405.550,36.404,45.068,45.001,0.00,0.09,-272.71,-272.77,3,672,-5,23.1,2.4,-27.0,23.2,2.6,-25.8,5.73,1.69,-14.1,28.8
2015-04-01 01:36:00,0.0,1.94539,0.00039,405.135,0.034,0.0828,0.0017,139.999,45.001,32300.87091,1.94694,405.539,36.446,45.068,45.001,0.00,0.09,-272.70,-272.77,4,672,-5,23.1,2.4,-27.0,23.2,2.7,-25.7,5.73,1.79,-14.1,28.9
2015-04-01 01:37:00,0.0,1.94572,0.00036,405.129,0.035,0.0832,0.0017,140.000,45.001,32301.34547,1.94734,405.535,36.483,45.068,45.001,0.00,0.09,-272.71,-272.77,4,672,-5,23.1,2.4,-26.9,23.2,2.6,-25.7,5.73,1.89,-14.1,28.9
2015-04-01 01:38:00,0.0,1.94511,0.00038,405.121,0.035,0.0841,0.0014,139.998,45.001,32303.21798,1.94676,405.531,36.537,45.068,45.001,0.00,0.09,-272.71,-272.77,3,671,-5,23.2,2.4,-27.0,23.2,2.6,-25.8,5.73,1.84,-14.1,28.9
2015-04-01 01:39:00,0.0,1.94466,0.00045,405.090,0.027,0.0841,0.0017,139.999,45.001,32306.50386,1.94625,405.500,36.566,45.068,45.001,0.00,0.09,-272.71,-272.77,4,671,-5,23.2,2.4,-27.0,23.3,2.6,-25.7,5.73,1.71,-14.1,29.0
2015-04-01 01:40:00,0.0,1.94497,0.00039,405.118,0.033,0.0842,0.0019,139.997,45.001,32307.25051,1.94660,405.528,36.623,45.068,45.001,0.00,0.09,-272.70,-272.77,4,671,-5,23.2,2.4,-27.0,23.3,2.7,-25.7,5.73,1.72,-14.1,29.0
2015-04-01 01:41:00,0.0,1.94478,0.00040,405.125,0.021,0.0837,0.0015,140.001,45.001,32308.25603,1.94639,405.533,36.677,45.067,45.001,0.00,0.09,-272.71,-272.77,4,671,-5,23.2,2.4,-26.9,23.3,2.7,-25.6,5.73,1.84,-14.1,29.1
2015-04-01 01:42:00,0.0,1.94477,0.00035,405.101,0.049,0.0833,0.0021,140.000,45.001,32307.91484,1.94634,405.510,36.719,45.067,45.001,0.00,0.09,-272.71,-272.77,3,671,-5,23.3,2.4,-26.9,23.3,2.6,-25.6,5.73,1.90,-14.1,29.1
2015-04-01 01:43:00,0.0,1.94490,0.00045,405.109,0.036,0.0847,0.0015,139.997,45.001,32306.12415,1.94651,405.520,36.743,45.067,45.001,0.00,0.09,-272.70,-272.77,4,671,-5,23.3,2.4,-26.8,23.4,2.6,-25.8,5.73,1.79,-14.1,29.2
2015-04-01 01:44:00,0.0,1.94567,0.00040,405.121,0.032,0.0845,0.0012,139.999,45.001,32308.80553,1.94728,405.534,36.770,45.067,45.001,0.00,0.09,-272.71,-272.77,4,671,-5,23.3,2.4,-26.9,23.4,2.6,-25.7,5.73,1.69,-14.1,29.2
2015-04-01 01:45:00,0.0,1.94533,0.00055,405.096,0.043,0.0856,0.0013,140.002,45.001,32312.68782,1.94702,405.514,36.802,45.067,45.000,0.00,0.09,-272.71,-272.77,3,671,-5,23.3,2.4,-26.8,23.4,2.6,-25.7,5.73,1.75,-14.0,29.2
2015-04-01 01:46:00,0.0,1.94478,0.00044,405.070,0.034,0.0858,0.0015,139.998,45.000,32314.57285,1.94643,405.488,36.779,45.067,45.000,0.00,0.09,-272.71,-272.76,3,672,-5,23.3,2.4,-26.7,23.4,2.6,-25.7,5.73,1.90,-14.0,29.2